DateTimeUTC,F1_A11,F1_S11,BsB_S11,BsG_S11,BsR_S11,BbsB_S11,BbsG_S11,BbsR_S11,BaB_A11,BaG_A11,BaR_A11,Tu_S11,T_S11,Uu_S11,U_S11,P_S11,T1_A11
2021-04-27T14:00:00Z,00040200,20000000,,,,,,,-000.27,-000.15,-000.08,20.4,26.9,07.4,05.0,0684.3,31.3
2021-04-27T14:01:00Z,00040200,20000000,,,,,,,0000.19,0000.04,0000.08,20.4,26.9,07.3,04.9,0684.3,31.3
2021-04-27T14:02:00Z,00040200,20000000,,,,,,,-000.32,-000.21,-000.13,20.4,26.9,07.1,04.8,0684.3,31.3
2021-04-27T14:03:00Z,00040200,60000000,,,,,,,0000.44,0000.29,0000.28,20.4,26.9,07.1,04.8,0684.3,31.3
2021-04-27T14:04:00Z,00040200,40000000,0001.37,0001.18,0000.79,0000.77,0000.28,-000.07,0000.26,0000.44,0000.42,20.4,26.8,07.1,04.9,0685.2,31.3
2021-04-27T14:05:00Z,00040200,00000000,0001.60,0001.21,0000.65,0001.14,0000.26,-000.24,0000.91,0000.38,0000.46,20.5,26.8,07.1,04.9,0685.3,31.3
2021-04-27T14:06:00Z,00040200,00000000,0000.69,0001.46,0000.55,0000.22,0000.12,0000.03,0000.54,0001.07,0000.44,20.5,26.8,07.1,04.9,0685.3,31.3
2021-04-27T14:07:00Z,00040200,00000000,0002.07,0001.20,0000.80,0000.60,0000.03,0000.25,0000.93,0000.79,0000.85,20.5,26.8,07.5,05.1,0685.3,31.3
2021-04-27T14:08:00Z,00040200,00000000,0002.16,0001.19,0000.80,0000.80,0000.12,0000.36,0000.96,0000.71,0000.40,20.5,26.8,07.5,05.1,0685.3,31.3
2021-04-27T14:09:00Z,00040200,00000000,0002.52,0001.41,0000.71,0000.68,0000.31,0000.10,-000.05,0000.20,0000.30,20.5,26.8,07.6,05.2,0685.3,31.3
2021-04-27T14:10:00Z,00040200,00000000,0002.20,0000.94,0000.89,0000.76,0000.45,0000.21,0000.77,0000.25,0000.29,20.5,26.8,07.5,05.1,0685.3,31.3
2021-04-27T14:11:00Z,00040200,00000000,0001.37,0001.11,0000.90,0000.15,0000.45,0000.22,0000.74,0000.88,0000.85,20.5,26.8,07.5,05.1,0685.3,31.3
2021-04-27T14:12:00Z,00040200,00000000,0001.39,0001.11,0000.70,0001.12,0000.12,-000.17,0000.48,0000.38,0000.09,20.5,26.8,07.5,05.1,0685.3,31.3
2021-04-27T14:13:00Z,00040200,00000000,0001.57,0001.11,0000.71,-000.07,0000.12,0000.32,0000.49,0000.73,0000.51,20.5,26.8,07.5,05.1,0685.3,31.3
2021-04-27T14:14:00Z,00040200,00000000,0002.24,0001.07,0000.82,0000.04,0000.19,0000.33,0000.75,0000.37,0000.23,20.5,26.8,07.5,05.2,0685.3,31.3
2021-04-27T14:15:00Z,00040200,00000000,0002.16,0001.40,0000.34,0000.49,0000.03,-000.29,0000.41,0000.67,0000.60,20.5,26.8,07.6,05.2,0685.3,31.3
2021-04-27T14:16:00Z,00040200,00000000,0001.51,0001.21,0000.75,0001.06,0000.08,0000.05,0000.95,0000.81,0000.78,20.5,26.8,07.7,05.3,0685.3,31.3
2021-04-27T14:17:00Z,00040200,00000000,0001.45,0001.36,0000.59,0001.16,0000.33,0000.15,0000.91,0000.58,0000.30,20.6,26.8,07.7,05.3,0685.3,31.3
2021-04-27T14:18:00Z,00040200,00000000,0001.63,0001.20,0000.67,0000.66,0000.24,-000.06,0000.57,0000.91,0000.55,20.6,26.8,07.9,05.4,0685.3,31.3
2021-04-27T14:19:00Z,00040200,00000000,0001.72,0001.33,0000.60,0000.45,0000.40,-000.05,0000.21,-000.16,0000.33,20.6,26.8,07.9,05.4,0685.3,31.3
2021-04-27T14:20:00Z,00040200,00000000,0001.28,0001.23,0000.38,0000.79,0000.10,-000.17,0000.62,0000.75,0000.34,20.6,26.8,07.9,05.4,0685.3,31.3
2021-04-27T14:21:00Z,00040200,00000000,0001.69,0001.48,0000.94,0000.26,0000.16,0000.41,0000.35,0000.53,0000.12,20.6,26.8,07.8,05.4,0685.3,31.3
2021-04-27T14:22:00Z,00040200,00000000,0001.93,0001.43,0000.37,0000.06,0000.37,-000.01,0000.52,0000.23,0000.13,20.6,26.8,07.7,05.3,0685.3,31.3
2021-04-27T14:23:00Z,00040200,00000000,0001.87,0001.12,0000.70,0000.93,0000.14,0000.15,0000.46,0000.59,0000.69,20.6,26.8,07.6,05.3,0685.3,31.3
2021-04-27T14:24:00Z,00040200,00000000,0001.47,0001.34,0000.49,0000.70,0000.17,0000.06,0000.28,0000.37,0000.04,20.6,26.8,07.7,05.3,0685.3,31.3
2021-04-27T14:25:00Z,00040200,00000000,0001.94,0001.02,0000.62,0000.86,0000.33,0000.15,0000.26,-000.02,0000.51,20.6,26.8,07.5,05.2,0685.3,31.3
2021-04-27T14:26:00Z,00040200,00000000,0001.62,0001.36,0000.66,0000.80,0000.18,0000.44,0000.65,0000.15,0000.11,20.6,26.8,07.5,05.2,0685.3,31.3
2021-04-27T14:27:00Z,00040200,00000000,0002.19,0001.53,0000.71,0000.64,0000.21,0000.19,0000.73,0000.76,0000.51,20.6,26.8,07.5,05.2,0685.3,31.3
2021-04-27T14:28:00Z,00040200,00000000,0002.10,0001.42,0000.97,0000.82,0000.40,0000.19,0000.71,0001.02,0000.82,20.6,26.8,07.6,05.2,0685.3,31.3
2021-04-27T14:29:00Z,00040200,00000000,0001.13,0000.97,0000.48,0000.66,0000.20,0000.15,0000.36,0000.29,0000.04,20.6,26.8,07.6,05.2,0685.3,31.3
2021-04-27T14:30:00Z,00040200,00000000,0001.28,0001.12,0000.56,0000.47,-000.02,-000.22,-000.01,0000.10,-000.01,20.6,26.8,07.6,05.2,0685.3,31.3
2021-04-27T14:31:00Z,00040200,00000000,0000.92,0000.93,0000.28,0000.43,0000.32,-000.07,0000.86,0000.75,0000.49,20.6,26.8,07.4,05.1,0685.3,31.3
2021-04-27T14:32:00Z,00040200,00000000,0001.55,0001.00,0000.66,0000.70,0000.30,0000.20,0000.67,0000.67,0000.57,20.7,26.8,07.5,05.2,0685.3,31.3
2021-04-27T14:33:00Z,00040200,00000000,0001.43,0001.36,0000.64,0000.50,0000.33,0000.21,0000.33,0000.29,0000.10,20.7,26.8,07.6,05.2,0685.2,31.3
2021-04-27T14:34:00Z,00040200,00000000,0001.17,0001.26,0000.68,0000.49,0000.25,0000.07,0000.15,-000.03,0000.58,20.7,26.9,07.5,05.1,0685.2,31.3
2021-04-27T14:35:00Z,00040200,00000000,0002.02,0001.13,0000.57,0000.44,0000.49,0000.05,0000.16,0000.36,-000.29,20.7,26.8,07.1,04.9,0685.2,31.3
2021-04-27T14:36:00Z,00040200,00000000,0001.77,0001.08,0000.55,0000.70,0000.36,0000.20,0000.87,0000.65,0000.62,20.7,26.8,07.1,04.9,0685.2,31.3
2021-04-27T14:37:00Z,00040200,00000000,0002.06,0000.78,0000.66,0000.48,0000.14,-000.04,0000.39,0000.73,0000.30,20.7,26.8,07.3,05.0,0685.2,31.3
2021-04-27T14:38:00Z,00040200,00000000,0002.31,0001.20,0000.72,0000.53,0000.13,0000.15,0000.76,0000.27,0000.49,20.7,26.9,07.2,05.0,0685.2,31.3
2021-04-27T14:39:00Z,00040200,00000000,0001.61,0001.48,0000.48,0000.20,0000.26,0000.26,0000.57,0000.32,0000.53,20.7,26.9,07.3,05.0,0685.2,31.3
2021-04-27T14:40:00Z,00040200,00000000,0001.15,0001.21,0000.69,0000.80,0000.53,0000.09,0000.82,0001.17,0000.64,20.7,26.9,07.4,05.1,0685.2,31.3
2021-04-27T14:41:00Z,00040200,00000000,0000.91,0001.31,0000.79,0000.22,0000.55,-000.17,0000.50,0000.19,0000.60,20.7,26.9,07.6,05.3,0685.2,31.3
2021-04-27T14:42:00Z,00040200,00000000,0001.34,0001.22,0000.70,0000.13,0000.29,-000.11,0001.00,0000.99,0000.48,20.7,26.9,07.8,05.4,0685.2,31.3
2021-04-27T14:43:00Z,00040200,00000000,0001.67,0000.95,0000.84,0000.66,-000.01,0000.23,0000.26,0000.29,0000.70,20.7,26.9,07.9,05.4,0685.2,31.3
2021-04-27T14:44:00Z,00040200,00000000,0002.34,0001.13,0000.92,0000.33,0000.42,0000.27,0000.50,0000.27,0000.05,20.7,26.9,07.7,05.3,0685.2,31.3
2021-04-27T14:45:00Z,00040200,00000000,0001.78,0001.30,0000.94,0000.16,0000.18,-000.00,0000.14,0000.20,-000.17,20.7,26.9,07.5,05.2,0685.2,31.3
2021-04-27T14:46:00Z,00040200,00000000,0001.49,0001.45,0000.63,0000.75,-000.06,-000.11,0000.13,0000.62,0000.18,20.7,26.9,07.5,05.2,0685.2,31.3
2021-04-27T14:47:00Z,00040200,00000000,0002.32,0001.25,0000.71,0000.37,0000.18,-000.07,0000.75,0000.49,0000.55,20.7,26.9,07.4,05.1,0685.2,31.3
2021-04-27T14:48:00Z,00040200,00000000,0001.96,0001.27,0000.52,0000.02,0000.32,-000.14,0000.31,0000.05,-000.04,20.7,26.9,07.4,05.1,0685.2,31.3
2021-04-27T14:49:00Z,00040200,00000000,0001.49,0001.28,0000.77,0000.71,0000.23,0000.30,0000.24,-000.04,0000.48,20.8,26.9,07.2,05.0,0685.2,31.3
2021-04-27T14:50:00Z,00040200,00000000,0001.49,0001.00,0000.76,0000.01,0000.14,-000.08,0000.28,0000.63,-000.23,20.8,26.9,07.2,05.0,0685.2,31.3
2021-04-27T14:51:00Z,00040200,00000000,0001.91,0001.28,0000.59,0000.02,0000.05,0000.26,0000.08,0000.28,0000.73,20.8,26.9,07.1,04.9,0685.2,31.3
2021-04-27T14:52:00Z,00040200,00000000,0001.74,0001.19,0000.64,0000.99,-000.02,-000.06,0000.54,0000.20,-000.07,20.8,26.9,07.0,04.8,0685.2,31.3
2021-04-27T14:53:00Z,00040200,00000000,0001.52,0001.23,0000.55,0000.37,0000.07,-000.08,0000.62,0000.55,0000.63,20.8,26.9,06.9,04.8,0685.2,31.3
2021-04-27T14:54:00Z,00040200,00000000,0001.84,0001.12,0000.91,0000.32,0000.42,0000.08,0000.00,0000.09,-000.08,20.8,27.0,06.9,04.7,0685.2,31.3
2021-04-27T14:55:00Z,00040200,00000000,0001.17,0001.08,0000.40,0000.27,0000.25,-000.05,0000.99,0000.68,0000.31,20.8,26.9,06.9,04.8,0685.2,31.3
2021-04-27T14:56:00Z,00040200,00000000,0001.15,0001.09,0000.42,0000.36,0000.31,-000.08,0000.10,0000.06,0000.26,20.8,26.9,06.9,04.7,0685.2,31.3
2021-04-27T14:57:00Z,00040200,40000000,,,,,,,0000.44,0000.63,0000.23,20.8,27.0,06.7,04.6,0685.2,31.3
2021-04-27T14:58:00Z,00040200,60000000,,,,,,,0000.21,-000.30,0000.17,20.6,27.1,07.1,04.8,0684.2,31.3
2021-04-27T14:59:00Z,00040200,20000000,,,,,,,-000.38,0000.37,0000.06,20.6,27.2,07.1,04.8,0684.2,31.3
